[[{"header":{"parameterUnit":"m.s-1","parameterCategory":1,"la1":30.2991,"la2":30.254,"lo1":-89.0895,"lo2":-89.0444,"dy":0.0017,"dx":0.0017,"nx":28,"ny":28,"refTime":"2024-07-07T03:00:00:Z","depth":0,"parameterNumber":2,"parameterNumberName":"U-component_of_WINDS"},"data":[0,0,0,0,0,0,0,0,0,0,0,0,0,0,0,0,0,0,0,0,0,0,0,0,0,0,0,0,0,0,0,0,0,0,0,0,0,0,0,0,0,0,0,0,0,0,0,0,0,0,0,0,0,0,0,0,0,0,0.3965,0.3966,0,0.3996,0.3996,0.3996,0.3997,0.3997,0.3996,0.3996,0.4026,0.4027,0.4028,0,0,0,0,0,0,0,0,0,0,0,0,0,0.3906,0.3907,0.3965,0.3966,0.3966,0.3995,0.3996,0.3996,0.3997,0.3997,0.3996,0.3996,0.4026,0.4027,0.4028,0,0,0,0,0,0,0,0,0,0,0,0,0,0.3934,0.3908,0.3965,0.397,0.3971,0.3995,0.3996,0.3996,0.3997,0.3997,0.3996,0.3995,0.4025,0.4027,0.4029,0.405,0,0,0.4034,0.4035,0,0,0,0,0,0,0,0,0.3932,0.3936,0.3969,0.397,0.3971,0.3992,0.3986,0.4014,0.3997,0.3987,0.3996,0.3995,0.4015,0.4018,0.4024,0.4052,0.4053,0.4034,0.4035,0.4036,0.4036,0,0,0,0,0,0,0,0.393,0.3935,0.3977,0.3969,0.397,0.397,0.3973,0.3991,0.4004,0.3988,0.3988,0.3992,0.4015,0.4023,0.4025,0.4053,0.4034,0.4035,0.4036,0.4037,0.4098,0.4098,0,0,0,0,0,0,0.3928,0.3933,0.3976,0.3978,0.395,0.3971,0.3975,0.3986,0.4004,0.4006,0.3992,0.3992,0.402,0.4023,0.4026,0.4051,0.4036,0.4037,0.4038,0.4097,0.4098,0.4099,0,0,0,0,0,0,0.3926,0.3931,0.3975,0.3956,0.3961,0.3973,0.3985,0.3986,0.3994,0.4007,0.4009,0.3997,0.402,0.4024,0.4044,0.4053,0.4038,0.404,0.4097,0.4098,0.4098,0.4103,0,0,0,0,0,0,0.3925,0.3931,0.394,0.3956,0.3962,0.3993,0.3985,0.3987,0.3997,0.3997,0.4012,0.4014,0.402,0.4041,0.4046,0.4055,0.4041,0.4096,0.4097,0.4098,0.4102,0.4104,0.4105,0,0,0,0,0,0.3922,0.394,0.394,0.3946,0.3974,0.3993,0.3997,0.4003,0.3998,0.4006,0.4014,0.4014,0.4051,0.4043,0.4048,0.4058,0.4095,0.4097,0.4098,0.4101,0.4104,0.4105,0,0,0,0,0,0,0.3925,0.3943,0.3943,0.3967,0.3978,0.3994,0.4005,0.4005,0.4019,0.4018,0.4024,0.4028,0.4047,0.4055,0.4046,0.4079,0.4072,0.4075,0.4073,0.4076,0.4077,0.4075,0.4042,0,0,0,0,0,0.3929,0.3944,0.3958,0.3977,0.3983,0.3993,0.4002,0.4005,0.4018,0.4023,0.4032,0.4044,0.4058,0.4067,0.4081,0.4103,0.4106,0.4112,0.4114,0.4115,0.4117,0.4127,0.413,0.4103,0.4103,0.4103,0,0,0.3936,0.3947,0.3956,0.3978,0.3988,0.4002,0.3997,0.4013,0.4024,0.4025,0.4044,0.4052,0.4065,0.4086,0.4095,0.4092,0.4125,0.4117,0.4118,0.4119,0.4129,0.4132,0.4134,0.4104,0.4104,0.4103,0,0,0.3956,0.3967,0.3983,0.3993,0.4007,0.4013,0.4017,0.4032,0.4037,0.4056,0.4057,0.4069,0.4094,0.4103,0.4111,0.4133,0.4132,0.4137,0.4146,0.4156,0.4158,0.416,0.4166,0.4169,0.4139,0.4139,0.4139,0,0.3963,0.3986,0.3992,0.4007,0.4016,0.4018,0.4034,0.4043,0.4061,0.4067,0.4063,0.4093,0.4102,0.4124,0.4129,0.4136,0.414,0.4135,0.4157,0.4159,0.4161,0.4167,0.417,0.4139,0.4139,0.4139,0.4139,0,0.3993,0.4008,0.402,0.4037,0.4047,0.4063,0.407,0.408,0.4082,0.4088,0.4107,0.4118,0.4133,0.4139,0.4141,0.4161,0.4158,0.4156,0.415,0.4164,0.417,0.4172,0.414,0.414,0.414,0.4139,0,0,0.4016,0.4035,0.4039,0.4047,0.4062,0.4074,0.4089,0.4104,0.4111,0.4123,0.4136,0.4156,0.4153,0.4162,0.4165,0.4174,0.4189,0.4171,0.4171,0.4173,0.421,0.4211,0.4213,0.4189,0.419,0.419,0.4208,0,0.4037,0.4065,0.407,0.4093,0.4107,0.4107,0.412,0.4131,0.4137,0.4148,0.4155,0.4168,0.4165,0.417,0.4179,0.4185,0.4196,0.4184,0.42,0.42,0.4195,0.4217,0.4218,0.4235,0.4211,0.4211,0.4211,0,0.4066,0.4078,0.4103,0.4115,0.4121,0.4132,0.4145,0.4157,0.4168,0.4172,0.4181,0.4183,0.4197,0.419,0.421,0.4202,0.4208,0.4212,0.4213,0.4214,0.4206,0.4218,0.424,0.4242,0.4215,0.4215,0.4215,0,0.4078,0.4101,0.4119,0.4125,0.414,0.4148,0.4154,0.4165,0.4173,0.4185,0.419,0.4203,0.421,0.4219,0.4224,0.4219,0.4243,0.4237,0.4245,0.4245,0.425,0.425,0.4273,0.4256,0.4255,0.4255,0.4255,0,0.4101,0.4116,0.4125,0.4135,0.4151,0.4157,0.4172,0.4178,0.4188,0.4199,0.4201,0.4211,0.4217,0.4228,0.4232,0.4247,0.425,0.4253,0.4253,0.4252,0.4252,0.4256,0.4255,0.4256,0.4256,0.4256,0.4256,0,0.4118,0.4125,0.4144,0.4156,0.4159,0.417,0.418,0.419,0.4196,0.421,0.4213,0.4221,0.4234,0.424,0.4256,0.4259,0.4275,0.4275,0.4271,0.4271,0.4279,0.4278,0.4306,0.4309,0.429,0.429,0.429,0,0.4132,0.4143,0.4156,0.4164,0.417,0.4183,0.4191,0.4196,0.4204,0.4217,0.4225,0.4237,0.4248,0.4268,0.4275,0.4287,0.4287,0.4296,0.4289,0.4287,0.4286,0.4285,0.4285,0.4297,0.4297,0.4297,0.4298,0,0.4155,0.4157,0.4169,0.4181,0.419,0.4201,0.421,0.4216,0.4223,0.4232,0.4245,0.4253,0.4269,0.4281,0.4293,0.4299,0.4299,0.43,0.4302,0.4301,0.4297,0.4298,0.4274,0.4299,0.4299,0.4299,0.4299,0.4299,0.417,0.4179,0.4189,0.4202,0.421,0.4218,0.4228,0.4234,0.4245,0.4258,0.426,0.4274,0.4283,0.4299,0.4306,0.4316,0.4314,0.4317,0.4318,0.4319,0.4319,0.4296,0.4318,0.4318,0.4318,0.4318,0.4318,0,0.4191,0.4198,0.4209,0.4223,0.4232,0.4232,0.4242,0.425,0.4262,0.4271,0.4281,0.4295,0.4306,0.4314,0.4325,0.4332,0.4332,0.4334,0.4334,0.4335,0.4321,0.4317,0.4334,0.4334,0.4334,0.4334,0.4334,0.4334,0.4204,0.4219,0.4223,0.4242,0.4248,0.4261,0.4267,0.4275,0.4282,0.4297,0.4307,0.4312,0.432,0.4331,0.4342,0.4343,0.4347,0.435,0.4351,0.4338,0.4336,0.4334,0.4331,0.4351,0.4351,0.4364,0.4365,0.4365]},{"header":{"parameterUnit":"m.s-1","parameterCategory":1,"la1":30.2991,"la2":30.254,"lo1":-89.0895,"lo2":-89.0444,"dy":0.0017,"dx":0.0017,"nx":28,"ny":28,"refTime":"2024-07-07T03:00:00:Z","depth":0,"parameterNumber":3,"parameterNumberName":"V-component_of_WINDS"},"data":[0,0,0,0,0,0,0,0,0,0,0,0,0,0,0,0,0,0,0,0,0,0,0,0,0,0,0,0,0,0,0,0,0,0,0,0,0,0,0,0,0,0,0,0,0,0,0,0,0,0,0,0,0,0,0,0,0,0,4.7797,4.7798,0,4.785,4.7851,4.7851,4.7791,4.7789,4.7787,4.7785,4.7834,4.7837,4.7841,0,0,0,0,0,0,0,0,0,0,0,0,0,4.7637,4.7641,4.7797,4.7798,4.7798,4.785,4.7851,4.7851,4.7792,4.7789,4.7786,4.7784,4.7833,4.7837,4.7841,0,0,0,0,0,0,0,0,0,0,0,0,0,4.77,4.7642,4.7797,4.7775,4.7774,4.785,4.7851,4.7852,4.7792,4.7789,4.7786,4.7782,4.7831,4.7836,4.7841,4.794,0,0,4.7857,4.7859,0,0,0,0,0,0,0,0,4.7697,4.7706,4.7777,4.7777,4.7775,4.7811,4.7812,4.7881,4.7793,4.7785,4.7785,4.7781,4.7829,4.7834,4.7851,4.7943,4.7945,4.7858,4.7861,4.7863,4.7864,0,0,0,0,0,0,0,4.7692,4.7703,4.7818,4.7779,4.7777,4.776,4.7765,4.7825,4.7825,4.7785,4.7781,4.7789,4.7827,4.7846,4.7852,4.7946,4.7857,4.7862,4.7865,4.7867,4.8119,4.8122,0,0,0,0,0,0,4.7691,4.77,4.7816,4.7819,4.7727,4.7766,4.7772,4.7803,4.7824,4.7824,4.7792,4.7786,4.7839,4.7846,4.7853,4.7969,4.7863,4.7868,4.7871,4.8115,4.8119,4.8123,0,0,0,0,0,0,4.7688,4.7702,4.7814,4.7759,4.7772,4.7772,4.7807,4.7805,4.7824,4.7829,4.7828,4.7811,4.7837,4.7846,4.7919,4.797,4.787,4.7875,4.8111,4.8116,4.8121,4.8202,0,0,0,0,0,0,4.7684,4.7702,4.7741,4.776,4.7775,4.7881,4.7811,4.7809,4.7834,4.7827,4.7847,4.7847,4.7835,4.7912,4.7924,4.7975,4.7879,4.8106,4.8113,4.812,4.8195,4.821,4.8222,0,0,0,0,0,4.7678,4.7761,4.7743,4.7757,4.7824,4.7884,4.7892,4.7878,4.7838,4.7876,4.7879,4.7846,4.7963,4.792,4.7933,4.7986,4.8103,4.8111,4.8119,4.8189,4.8207,4.8222,0,0,0,0,0,0,4.7746,4.7763,4.7744,4.7835,4.7859,4.7874,4.7922,4.7898,4.7932,4.7924,4.7903,4.7908,4.7985,4.7993,4.7945,4.8082,4.8026,4.8037,4.8074,4.8091,4.8105,4.81,4.7883,0,0,0,0,0,4.7772,4.7821,4.7832,4.7912,4.7925,4.7922,4.7947,4.7934,4.7957,4.7966,4.7974,4.7996,4.8037,4.8065,4.8103,4.8196,4.8198,4.8239,4.8253,4.8264,4.8273,4.8321,4.8338,4.815,4.815,4.815,0,0,4.7825,4.784,4.7872,4.7926,4.7943,4.7992,4.793,4.7985,4.8021,4.7974,4.8044,4.805,4.8073,4.8156,4.8193,4.8165,4.8326,4.8274,4.8283,4.8286,4.8331,4.8349,4.8365,4.8156,4.8155,4.8154,0,0,4.7947,4.7965,4.8032,4.805,4.8077,4.8074,4.809,4.8109,4.8112,4.8182,4.8147,4.8188,4.826,4.8277,4.8295,4.8423,4.8393,4.8436,4.8507,4.8553,4.8568,4.8581,4.8624,4.8641,4.8445,4.8446,4.8446,0,4.8009,4.8084,4.8069,4.8126,4.815,4.8111,4.8177,4.8195,4.8232,4.8248,4.8217,4.8306,4.8318,4.8404,4.8435,4.8452,4.8467,4.8433,4.8567,4.858,4.8592,4.8633,4.865,4.845,4.845,4.8449,4.8449,0,4.8158,4.821,4.8261,4.8299,4.8328,4.839,4.8382,4.8413,4.8397,4.8397,4.8467,4.8481,4.8521,4.854,4.8525,4.8623,4.8605,4.8571,4.8514,4.8615,4.8653,4.8669,4.8457,4.8456,4.8454,4.8453,0,0,4.8324,4.8353,4.8371,4.8387,4.8414,4.8453,4.8511,4.8552,4.8577,4.8604,4.8651,4.8713,4.8681,4.8702,4.8688,4.8729,4.8827,4.869,4.869,4.8713,4.8933,4.8958,4.8977,4.8808,4.8811,4.8813,4.8931,0,4.8445,4.8549,4.8536,4.8635,4.8681,4.8645,4.8695,4.8716,4.8717,4.8755,4.8755,4.8798,4.8754,4.8766,4.8806,4.8807,4.887,4.8798,4.8849,4.8851,4.8844,4.8997,4.9023,4.9134,4.8946,4.8949,4.895,0,4.86,4.8633,4.8737,4.8754,4.8773,4.882,4.8854,4.8892,4.8913,4.8911,4.8934,4.8913,4.8969,4.8912,4.8988,4.8939,4.8959,4.8963,4.8967,4.897,4.8906,4.9002,4.9169,4.9185,4.8974,4.8972,4.8971,0,4.8708,4.8779,4.885,4.8865,4.8888,4.892,4.8931,4.8949,4.8974,4.9004,4.9019,4.9054,4.9074,4.9101,4.9088,4.9048,4.9166,4.9109,4.9164,4.9164,4.919,4.9188,4.936,4.9205,4.9205,4.9205,4.9204,0,4.8844,4.8908,4.8899,4.8942,4.9012,4.8996,4.9065,4.9071,4.9087,4.9129,4.9099,4.9139,4.9121,4.9159,4.915,4.9213,4.9222,4.922,4.9217,4.9222,4.9222,4.9234,4.9226,4.9209,4.9208,4.9207,4.9207,0,4.8977,4.8973,4.9047,4.9063,4.9068,4.9119,4.9131,4.917,4.9169,4.9222,4.9234,4.9231,4.9274,4.9265,4.9312,4.9305,4.9384,4.9372,4.9378,4.9374,4.9429,4.9424,4.9614,4.9637,4.9469,4.9471,4.9472,0,4.9063,4.9112,4.9133,4.9159,4.9173,4.9216,4.9241,4.9227,4.9253,4.9281,4.9316,4.9357,4.9388,4.9458,4.9459,4.9494,4.9481,4.9545,4.9486,4.949,4.948,4.9477,4.9481,4.9557,4.9559,4.956,4.9562,0,4.9216,4.9212,4.9249,4.9287,4.9317,4.9346,4.937,4.9393,4.9381,4.9412,4.9456,4.9481,4.9529,4.9568,4.9601,4.9609,4.9583,4.958,4.9595,4.96,4.9601,4.9599,4.9408,4.9576,4.9574,4.9573,4.9573,4.9572,4.9327,4.9368,4.9389,4.9431,4.9449,4.9472,4.951,4.9513,4.955,4.9589,4.9578,4.9628,4.9645,4.9686,4.9699,4.9736,4.9712,4.9733,4.9738,4.9743,4.9749,4.9596,4.9742,4.9742,4.9741,4.9741,4.9741,0,4.9477,4.9488,4.9528,4.9564,4.9597,4.9571,4.9597,4.9625,4.967,4.969,4.9722,4.9771,4.9809,4.9814,4.9849,4.9878,4.9866,4.9887,4.9884,4.9886,4.977,4.9753,4.9896,4.9896,4.9896,4.9896,4.9896,4.9896,4.9558,4.9626,4.9623,4.9698,4.9708,4.9758,4.9775,4.9795,4.9811,4.9868,4.99,4.9903,4.9916,4.9952,4.9985,4.9985,4.9999,5.0024,5.002,4.991,4.9895,4.988,4.9864,5.0028,5.0028,5.0133,5.0134,5.0134]}]]